Waarnemingen

Advertentie
Mijn weer
Bolzano, Italië (16020): temperatuur & dauwpunt: 19.04.2018 07:00:00 - 25.04.2018 07:00:00 (CEST)Bolzano, Italië (16020): windsnelheid: 19.04.2018 07:00:00 - 25.04.2018 07:00:00 (CEST)Bolzano, Italië (16020): windrichting: 19.04.2018 07:00:00 - 25.04.2018 07:00:00 (CEST)Bolzano, Italië (16020): luchtdruk: 19.04.2018 07:00:00 - 25.04.2018 07:00:00 (CEST)Bolzano, Italië (16020): zicht: 19.04.2018 07:00:00 - 25.04.2018 07:00:00 (CEST)Bolzano, Italië (16020): neerslag: 19.04.2018 07:00:00 - 25.04.2018 07:00:00 (CEST)
Datum & Tijd tt [°C] td [°C] ff [km/u] ff [kn] dd ppp [hPa] vv [km] rr [mm]
25.04.2018 07:00:00 14,0 12,0 0 0 N - 10 -
25.04.2018 06:00:00 - - - - - - - -
25.04.2018 05:00:00 15,6 11,9 2 1 Z 1016,0 - -
25.04.2018 04:00:00 - - - - - - - -
25.04.2018 03:00:00 - - - - - - - -
25.04.2018 02:00:00 - - - - - - - -
25.04.2018 01:00:00 - - - - - - - -
25.04.2018 00:00:00 - - - - - - - -
24.04.2018 23:00:00 17,8 10,6 4 2 - 1015,9 10 -
24.04.2018 22:00:00 21,0 10,0 9 5 ZO - 10 -
24.04.2018 21:00:00 22,0 10,0 11 6 ZZO - 10 -
24.04.2018 20:00:00 24,0 9,0 16 9 ZZO - 10 -
24.04.2018 19:00:00 25,0 10,0 18 10 ZZO - 10 -
24.04.2018 18:00:00 26,0 11,0 18 10 Z - 10 -
24.04.2018 17:00:00 26,8 10,5 18 10 Z 1012,1 10 -
24.04.2018 16:00:00 28,0 10,0 16 9 Z - 10 -
24.04.2018 15:00:00 27,0 8,0 15 8 ZZW - 10 -
24.04.2018 14:00:00 27,3 7,1 9 5 ZZO 1013,9 60 0,0
24.04.2018 13:00:00 26,0 9,0 5 3 Z - 10 -
24.04.2018 12:00:00 24,0 12,0 8 4 ZO - 10 -
24.04.2018 11:00:00 22,6 10,4 4 2 Z 1016,9 10 -
24.04.2018 10:00:00 20,0 12,0 5 3 NO - 10 -
24.04.2018 09:00:00 18,0 13,0 0 0 N - 10 -
24.04.2018 08:00:00 13,5 10,7 5 3 - 1018,4 10 0,0
24.04.2018 07:00:00 13,0 11,0 0 0 N - 10 -
24.04.2018 06:00:00 - - - - - - - -
24.04.2018 05:00:00 15,0 10,3 2 1 OZO 1016,9 - -
24.04.2018 04:00:00 - - - - - - - -
24.04.2018 03:00:00 - - - - - - - -
24.04.2018 02:00:00 15,8 10,4 4 2 ZO 1015,7 - 0,0
24.04.2018 01:00:00 - - - - - - - -
24.04.2018 00:00:00 - - - - - - - -
23.04.2018 23:00:00 17,4 11,0 4 2 - 1014,5 10 -
23.04.2018 22:00:00 21,0 11,0 9 5 ZZO - 10 -
23.04.2018 21:00:00 22,0 11,0 9 5 ZZO - 10 -
23.04.2018 20:00:00 23,1 10,4 11 6 Z 1012,2 35 0,0
23.04.2018 19:00:00 25,0 11,0 13 7 Z - 10 -
23.04.2018 18:00:00 26,0 11,0 15 8 Z - 10 -
23.04.2018 17:00:00 27,7 9,1 16 9 Z 1010,6 35 -
23.04.2018 16:00:00 28,0 10,0 5 3 Z - 10 -
23.04.2018 15:00:00 28,0 9,0 11 6 Z - 10 -
23.04.2018 14:00:00 26,8 9,6 11 6 Z 1013,4 45 0,0
23.04.2018 13:00:00 25,0 9,0 5 3 - - 10 -
23.04.2018 12:00:00 22,0 9,0 5 3 - - 10 -
23.04.2018 11:00:00 21,4 8,7 4 2 ZO 1017,0 45 -
23.04.2018 10:00:00 19,0 10,0 5 3 - - 10 -
23.04.2018 09:00:00 16,0 9,0 2 1 - - 10 -
23.04.2018 08:00:00 14,3 9,8 2 1 ONO 1019,1 25 0,0
23.04.2018 07:00:00 12,0 9,0 2 1 - - 10 -
23.04.2018 06:00:00 - - - - - - - -
23.04.2018 05:00:00 12,1 8,9 4 2 NNW 1018,9 - -
23.04.2018 04:00:00 - - - - - - - -
23.04.2018 03:00:00 - - - - - - - -
23.04.2018 02:00:00 14,4 9,5 2 1 O 1017,9 - 0,0
23.04.2018 01:00:00 - - - - - - - -
23.04.2018 00:00:00 - - - - - - - -
22.04.2018 23:00:00 19,6 8,4 5 3 - 1016,4 10 -
22.04.2018 22:00:00 23,0 9,0 11 6 ZZO - 10 -
22.04.2018 21:00:00 23,0 9,0 13 7 ZZO - 10 -
22.04.2018 20:00:00 23,8 8,0 16 9 ZZO 1013,4 30 0,0
22.04.2018 19:00:00 26,0 8,0 16 9 ZZO - 10 -
22.04.2018 18:00:00 27,0 11,0 13 7 Z - 10 -
22.04.2018 17:00:00 28,4 8,3 13 7 ZZO 1012,0 30 -
22.04.2018 16:00:00 28,0 10,0 9 5 ZO - 10 -
22.04.2018 15:00:00 28,0 8,0 9 5 Z - 10 -
22.04.2018 14:00:00 26,6 7,6 8 4 Z 1014,5 10 0,0
22.04.2018 13:00:00 24,0 7,0 4 2 - - 10 -
22.04.2018 12:00:00 22,0 8,0 5 3 - - 10 -
22.04.2018 11:00:00 20,5 8,5 5 3 - 1018,1 10 -
22.04.2018 10:00:00 18,0 8,0 4 2 - - 10 -
22.04.2018 09:00:00 16,0 8,0 2 1 - - 10 -
22.04.2018 08:00:00 11,7 8,5 2 1 ZO 1020,6 50 0,0
22.04.2018 07:00:00 12,0 8,0 5 3 ONO - 10 -
22.04.2018 06:00:00 - - - - - - - -
22.04.2018 05:00:00 11,0 8,2 2 1 O 1020,1 - -
22.04.2018 04:00:00 - - - - - - - -
22.04.2018 03:00:00 - - - - - - - -
22.04.2018 02:00:00 14,8 8,4 2 1 N 1019,5 - 0,0
22.04.2018 01:00:00 - - - - - - - -
22.04.2018 00:00:00 - - - - - - - -
21.04.2018 23:00:00 17,6 8,0 4 2 - 1018,1 10 -
21.04.2018 22:00:00 21,0 8,0 5 3 - - 10 -
21.04.2018 21:00:00 23,0 6,0 9 5 Z - 10 -
21.04.2018 20:00:00 23,8 6,0 11 6 ZZO 1014,9 30 0,0
21.04.2018 19:00:00 28,0 6,0 9 5 ZO - 10 -
21.04.2018 18:00:00 29,0 7,0 8 4 Z - 10 -
21.04.2018 17:00:00 29,0 5,4 9 5 Z 1014,6 30 -
21.04.2018 16:00:00 27,0 7,0 9 5 Z - 10 -
21.04.2018 15:00:00 27,0 7,0 5 3 - - 10 -
21.04.2018 14:00:00 26,4 7,1 4 2 - 1017,9 10 0,0
21.04.2018 13:00:00 24,0 5,0 4 2 - - 10 -
21.04.2018 12:00:00 22,0 4,0 4 2 - - 10 -
21.04.2018 11:00:00 21,0 5,3 4 2 - 1021,9 10 -
21.04.2018 10:00:00 18,0 5,0 8 4 ZO - 10 -
21.04.2018 09:00:00 15,0 6,0 0 0 N - 10 -
21.04.2018 08:00:00 10,8 6,7 4 2 OZO 1024,4 28 0,0
21.04.2018 07:00:00 9,0 6,0 2 1 - - 10 -
21.04.2018 06:00:00 - - - - - - - -
21.04.2018 05:00:00 10,3 6,2 2 1 W 1024,0 - -
21.04.2018 04:00:00 - - - - - - - -
21.04.2018 03:00:00 - - - - - - - -
21.04.2018 02:00:00 12,6 8,1 4 2 ZO 1023,4 - 0,0
21.04.2018 01:00:00 - - - - - - - -
21.04.2018 00:00:00 - - - - - - - -
20.04.2018 23:00:00 16,6 8,5 4 2 - 1022,1 10 -
20.04.2018 22:00:00 21,0 7,0 4 2 - - 10 -
20.04.2018 21:00:00 19,0 9,0 4 2 - - 10 -
20.04.2018 20:00:00 20,9 8,9 4 2 WNW 1019,6 30 0,0
20.04.2018 19:00:00 28,0 3,0 8 4 ZO - 10 -
20.04.2018 18:00:00 29,0 9,0 8 4 ZZW - 10 -
20.04.2018 17:00:00 29,0 9,0 5 3 ZZW 1019,4 26 -
20.04.2018 16:00:00 29,0 6,0 4 2 - - 10 -
20.04.2018 15:00:00 27,0 7,0 4 2 - - 10 -
20.04.2018 14:00:00 25,7 6,2 4 2 - 1022,9 10 0,0
20.04.2018 13:00:00 24,0 6,0 4 2 - - 10 -
20.04.2018 12:00:00 22,0 6,0 4 2 - - 10 -
20.04.2018 11:00:00 19,8 5,9 2 1 - 1026,8 10 -
20.04.2018 10:00:00 17,0 7,0 4 2 - - 10 -
20.04.2018 09:00:00 15,0 8,0 2 1 - - 10 -
20.04.2018 08:00:00 9,8 6,6 2 1 NNO 1028,7 20 0,0
20.04.2018 07:00:00 9,0 7,0 0 0 N - 10 -
20.04.2018 06:00:00 - - - - - - - -
20.04.2018 05:00:00 11,1 7,3 2 1 ZZO 1028,0 - -
20.04.2018 04:00:00 - - - - - - - -
20.04.2018 03:00:00 - - - - - - - -
20.04.2018 02:00:00 12,3 7,9 0 0 N 1027,6 - 0,0
20.04.2018 01:00:00 - - - - - - - -
20.04.2018 00:00:00 - - - - - - - -
19.04.2018 23:00:00 16,5 7,6 2 1 W 1026,4 18 -
19.04.2018 22:00:00 20,0 7,0 4 2 - - 10 -
19.04.2018 21:00:00 22,0 7,0 9 5 ZZO - 10 -
19.04.2018 20:00:00 23,1 6,7 13 7 ZZO 1023,6 25 0,0
19.04.2018 19:00:00 26,0 6,0 13 7 Z - 10 -
19.04.2018 18:00:00 27,0 6,0 15 8 Z - 10 -
19.04.2018 17:00:00 28,0 5,5 11 6 Z 1022,4 10 -
19.04.2018 16:00:00 27,0 4,0 11 6 Z - 10 -
19.04.2018 15:00:00 26,0 7,0 9 5 Z - 10 -
19.04.2018 14:00:00 24,9 5,6 4 2 - 1025,3 10 0,0
19.04.2018 13:00:00 23,0 4,0 4 2 - - 10 -
19.04.2018 12:00:00 21,0 5,0 4 2 - - 10 -
19.04.2018 11:00:00 19,4 3,1 5 3 - 1029,4 10 -
19.04.2018 10:00:00 17,0 5,0 4 2 - - 10 -
19.04.2018 09:00:00 13,0 5,0 0 0 N - 10 -
19.04.2018 08:00:00 9,5 5,3 4 2 ZO 1031,9 50 0,0
19.04.2018 07:00:00 9,0 4,0 0 0 N - 10 -

tt = temperatuur
td = dauwpunt
ff = windsnelheid
dd = windrichting
ppp = luchtdruk
vv = zicht
rr = neerslag

Weerstations in de omgeving